User: anonymous   Login
Location: Durham
(35.9940°N, 78.8990°W)
Time: 05:47:06
(UTC-04:00)
Language:

Iridium 63 - Orbit

View from above orbital plane
View from above orbital plane
View from above satellite
View from above satellite

Ground track
Ground track

The orbit data is extracted from the following two-line orbital elements,

1 25286U 98021B   16182.55445367  .00000097  00000-0  27184-4 0  9992
2 25286  86.3978  11.2961 0002281  96.2233 316.0183 14.34598950954631
Epoch (UTC): 30 June 2016 13:18:24
Eccentricity: 0.0002281
inclination: 86.3978°
perigee height: 775 km
apogee height: 778 km
right ascension of ascending node: 11.2961°
argument of perigee: 96.2233°
revolutions per day: 14.34598950
mean anomaly at epoch: 316.0183°
orbit number at epoch: 95463

The dashed part of the orbit path shows where the satellite is in the earth's shadow,  

DLR